Fitchburg, MA

10:46 AM EDT on April 22, 2018 (GMT -0400)
Fitchburg Municipal

Weather History for KFIT - August, 2013

Change the Weather History Date:

Monday, August 26, 2013

  Actual Average (KORH) Record (KORH)
Temperature  
Mean Temperature 72 °F -  
Max Temperature 80 °F 77 °F 98 °F (1948)
Min Temperature 64 °F 57 °F 40 °F (1942)
Cooling Degree Days 7    
Growing Degree Days 22 (Base 50)    
Moisture  
Dew Point 61 °F    
Average Humidity 67    
Maximum Humidity 87    
Minimum Humidity 51    
Precipitation  
Precipitation 0.02 in - - ()
Sea Level Pressure  
Sea Level Pressure 30.03 in    
Wind  
Wind Speed 5 mph (WSW)    
Max Wind Speed 13 mph    
Max Gust Speed 17 mph    
Visibility 10 miles    
Events Rain    
Averages and records for this station are not official NWS values.
T = Trace of Precipitation, MM = Missing Value Source: NWS Daily Summary

Daily Weather History Graph

Daily Weather History Graph

Search for Another Location

Airport or City:

Astronomy

Aug. 26, 2013 Rise Set
Actual Time 6:05 AM EDT 7:30 PM EDT
Civil Twilight 5:36 AM EDT 8:00 PM EDT
Nautical Twilight 5:00 AM EDT 8:35 PM EDT
Astronomical Twilight 4:23 AM EDT 9:12 PM EDT
Moon 10:30 PM EDT (8/26) 12:13 PM EDT (8/26)
Length of Visible Light 14h 23m
Length of Day
13h 25m
Waning Gibbous, 67% of the Moon is Illuminated
Aug 26
Waning Gibbous
Aug 28
Last Quarter
Sep 5
New
Sep 12
First Quarter
Sep 19
Full

Hourly Weather History & Observations

Time (EDT) Temp. Heat Index Dew Point Humidity Pressure Visibility Wind Dir Wind Speed Gust Speed Precip Events Conditions
12:52 AM 70.0 °F - 54.0 °F 57% 30.19 in 10.0 mi SW 3.5 mph - N/A   Clear
1:52 AM 72.0 °F - 53.1 °F 51% 30.17 in 10.0 mi WSW 5.8 mph - N/A   Clear
2:52 AM 70.0 °F - 54.0 °F 57% 30.17 in 10.0 mi West 8.1 mph - N/A   Scattered Clouds
3:52 AM 66.9 °F - 59.0 °F 76% 30.16 in 10.0 mi Calm Calm - 0.00 in Rain Light Rain
4:52 AM 66.0 °F - 57.9 °F 75% 30.14 in 10.0 mi Calm Calm - 0.00 in   Overcast
5:52 AM 64.9 °F - 57.9 °F 78% 30.13 in 10.0 mi Calm Calm - 0.01 in   Overcast
6:52 AM 66.0 °F - 60.1 °F 81% 30.11 in 10.0 mi South 4.6 mph - 0.00 in Rain Light Rain
7:52 AM 66.9 °F - 57.9 °F 73% 30.09 in 10.0 mi SSE 5.8 mph - 0.00 in   Overcast
8:52 AM 69.1 °F - 57.9 °F 68% 30.09 in 10.0 mi South 4.6 mph - N/A   Overcast
9:52 AM 72.0 °F - 59.0 °F 64% 30.05 in 10.0 mi SSW 5.8 mph - N/A   Overcast
10:52 AM 78.1 °F - 60.1 °F 54% 30.04 in 10.0 mi West 11.5 mph 17.3 mph N/A   Partly Cloudy
1:52 PM 79.0 °F - 62.1 °F 56% 29.98 in 10.0 mi WNW 9.2 mph 16.1 mph N/A   Mostly Cloudy
2:52 PM 80.1 °F 81.5 °F 63.0 °F 56% 29.96 in 10.0 mi WSW 12.7 mph - N/A   Scattered Clouds
3:52 PM 80.1 °F 81.7 °F 64.0 °F 58% 29.95 in 10.0 mi SW 8.1 mph - N/A   Partly Cloudy
4:52 PM 79.0 °F - 64.9 °F 62% 29.94 in 10.0 mi SW 8.1 mph - N/A   Mostly Cloudy
5:52 PM 78.1 °F - 64.9 °F 64% 29.92 in 10.0 mi SW 9.2 mph - N/A   Overcast
6:52 PM 77.0 °F - 64.9 °F 66% 29.92 in 10.0 mi West 5.8 mph - N/A   Overcast
7:52 PM 75.9 °F - 64.9 °F 69% 29.91 in 10.0 mi Calm Calm - N/A   Clear
8:52 PM 75.9 °F - 64.9 °F 69% 29.92 in 10.0 mi Calm Calm - N/A   Overcast
9:52 PM 75.0 °F - 64.9 °F 71% 29.92 in 10.0 mi West 4.6 mph - N/A   Overcast
10:52 PM 73.9 °F - 64.9 °F 73% 29.91 in 10.0 mi Calm Calm - N/A   Overcast
11:52 PM 71.1 °F - 66.9 °F 87% 29.89 in 8.0 mi WNW 3.5 mph - 0.01 in Rain Light Rain